| time (UTC) | temp C | wind direction | speed KPH | gust KPH | rain 1hr cm | rain 24hr cm | rain mn cm | humidity % | barometer mb |
| 20260902181221 | 18 | 289 | 8.0 | 12.9 | 0.00 | 1.22 | 1.22 | 94 | 1011.9 |
| 20260902180722 | 18 | 291 | 4.8 | 14.5 | 0.00 | 1.22 | 1.22 | 94 | 1011.7 |
| 20260902175721 | 18 | 303 | 4.8 | 12.9 | 0.00 | 1.22 | 1.22 | 94 | 1011.6 |
| 20260902175222 | 18 | 297 | 4.8 | 14.5 | 0.00 | 1.22 | 1.22 | 93 | 1011.5 |
| 20260902174721 | 18 | 307 | 4.8 | 12.9 | 0.00 | 1.22 | 1.22 | 93 | 1011.6 |
| 20260902174220 | 18 | 273 | 6.4 | 16.1 | 0.00 | 1.22 | 1.22 | 93 | 1011.6 |
| 20260902173721 | 18 | 294 | 4.8 | 16.1 | 0.00 | 1.22 | 1.22 | 92 | 1011.4 |
| 20260902173222 | 18 | 300 | 8.0 | 16.1 | 0.00 | 1.22 | 1.22 | 92 | 1011.6 |
| 20260902172721 | 18 | 306 | 8.0 | 19.3 | 0.00 | 1.22 | 1.22 | 92 | 1011.6 |
| 20260902171721 | 18 | 292 | 8.0 | 16.1 | 0.00 | 1.22 | 1.22 | 92 | 1011.5 |
| 20260902171221 | 18 | 294 | 4.8 | 14.5 | 0.00 | 1.22 | 1.22 | 92 | 1011.6 |
| 20260902170722 | 18 | 307 | 8.0 | 20.9 | 0.00 | 1.22 | 1.22 | 91 | 1011.5 |
| 20260902165721 | 18 | 295 | 8.0 | 14.5 | 0.00 | 1.22 | 1.22 | 90 | 1011.6 |
| 20260902165223 | 19 | 320 | 4.8 | 16.1 | 0.00 | 1.22 | 1.22 | 90 | 1011.6 |
| 20260902164721 | 19 | 309 | 8.0 | 14.5 | 0.00 | 1.22 | 1.22 | 90 | 1011.7 |
| 20260902164221 | 19 | 295 | 8.0 | 19.3 | 0.00 | 1.22 | 1.22 | 89 | 1011.6 |
| 20260902163722 | 20 | 301 | 8.0 | 16.1 | 0.00 | 1.22 | 1.22 | 89 | 1011.4 |
| 20260902163222 | 20 | 314 | 9.7 | 19.3 | 0.00 | 1.22 | 1.22 | 89 | 1011.5 |
| 20260902162723 | 20 | 304 | 6.4 | 16.1 | 0.00 | 1.22 | 1.22 | 89 | 1011.4 |
| 20260902162222 | 20 | 298 | 6.4 | 14.5 | 0.00 | 1.22 | 1.22 | 89 | 1011.3 |
| 20260902161723 | 19 | 282 | 8.0 | 19.3 | 0.00 | 1.22 | 1.22 | 89 | 1011.5 |
| 20260902160724 | 19 | 285 | 8.0 | 14.5 | 0.00 | 1.22 | 1.22 | 89 | 1011.4 |
| 20260902160221 | 19 | 324 | 4.8 | 11.3 | 0.00 | 1.22 | 1.22 | 89 | 1011.4 |
| 20260902155721 | 20 | 313 | 4.8 | 12.9 | 0.00 | 1.22 | 1.22 | 89 | 1011.5 |
| 20260902154722 | 20 | 331 | 1.6 | 19.3 | 0.00 | 1.22 | 1.22 | 88 | 1011.5 |
| 20260902154223 | 20 | 292 | 3.2 | 9.7 | 0.00 | 1.22 | 1.22 | 88 | 1011.5 |
| 20260902153722 | 20 | 316 | 6.4 | 12.9 | 0.00 | 1.22 | 1.22 | 87 | 1011.6 |
| 20260902153222 | 20 | 294 | 3.2 | 9.7 | 0.00 | 1.22 | 1.22 | 86 | 1011.6 |
| 20260902152723 | 20 | 323 | 1.6 | 8.0 | 0.00 | 1.22 | 1.22 | 87 | 1011.5 |
| 20260902152222 | 20 | 280 | 3.2 | 9.7 | 0.00 | 1.22 | 1.22 | 87 | 1011.5 |
| 20260902151723 | 20 | 342 | 4.8 | 11.3 | 0.00 | 1.22 | 1.22 | 88 | 1011.5 |
| 20260902151223 | 20 | 295 | 4.8 | 12.9 | 0.00 | 1.22 | 1.22 | 87 | 1011.5 |
| 20260902150722 | 20 | 299 | 6.4 | 12.9 | 0.00 | 1.22 | 1.22 | 87 | 1011.5 |
| 20260902150222 | 20 | 303 | 4.8 | 14.5 | 0.00 | 1.22 | 1.22 | 87 | 1011.5 |
| 20260902145722 | 20 | 287 | 4.8 | 12.9 | 0.00 | 1.22 | 1.22 | 86 | 1011.5 |
| 20260902145224 | 20 | 311 | 3.2 | 9.7 | 0.00 | 1.22 | 1.22 | 86 | 1011.5 |
| 20260902144722 | 20 | 316 | 3.2 | 11.3 | 0.00 | 1.22 | 1.22 | 86 | 1011.4 |
| 20260902144223 | 20 | 311 | 4.8 | 11.3 | 0.00 | 1.22 | 1.22 | 85 | 1011.3 |
| 20260902143722 | 21 | 318 | 4.8 | 11.3 | 0.00 | 1.22 | 1.22 | 84 | 1011.3 |
| 20260902143223 | 21 | 18 | 4.8 | 9.7 | 0.00 | 1.22 | 1.22 | 83 | 1011.3 |
| 20260902141724 | 22 | 286 | 3.2 | 12.9 | 0.00 | 1.22 | 1.22 | 82 | 1011.2 |
| 20260902141224 | 22 | 245 | 3.2 | 19.3 | 0.00 | 1.22 | 1.22 | 83 | 1011.3 |
| 20260902140723 | 22 | 266 | 4.8 | 14.5 | 0.00 | 1.22 | 1.22 | 82 | 1011.3 |
| 20260902140223 | 22 | 306 | 4.8 | 16.1 | 0.00 | 1.22 | 1.22 | 83 | 1011.4 |
| 20260902135225 | 22 | 326 | 3.2 | 9.7 | 0.00 | 1.22 | 1.22 | 84 | 1011.4 |
| 20260902134224 | 22 | 171 | 3.2 | 11.3 | 0.00 | 1.22 | 1.22 | 84 | 1011.4 |
| 20260902133224 | 21 | 290 | 4.8 | 19.3 | 0.00 | 1.22 | 1.22 | 84 | 1011.4 |
| 20260902132723 | 21 | 272 | 4.8 | 19.3 | 0.00 | 1.22 | 1.22 | 85 | 1011.4 |
| 20260902132223 | 21 | 321 | 3.2 | 11.3 | 0.00 | 1.24 | 1.22 | 86 | 1011.3 |
| 20260902131723 | 21 | 301 | 4.8 | 12.9 | 0.00 | 1.24 | 1.22 | 86 | 1011.2 |
| 20260902131223 | 21 | 330 | 4.8 | 14.5 | 0.00 | 1.24 | 1.22 | 87 | 1011.3 |
| 20260902130724 | 21 | 301 | 3.2 | 9.7 | 0.00 | 1.24 | 1.22 | 86 | 1011.3 |
| 20260902130224 | 21 | 328 | 3.2 | 11.3 | 0.00 | 1.24 | 1.22 | 87 | 1011.4 |
| 20260902125724 | 21 | 292 | 9.7 | 16.1 | 0.00 | 1.24 | 1.22 | 86 | 1011.4 |
| 20260902124224 | 21 | 306 | 8.0 | 19.3 | 0.00 | 1.24 | 1.22 | 88 | 1011.2 |
| 20260902123723 | 21 | 310 | 9.7 | 14.5 | 0.00 | 1.24 | 1.22 | 88 | 1011.0 |
| 20260902122223 | 20 | 307 | 9.7 | 16.1 | 0.00 | 1.24 | 1.22 | 89 | 1010.9 |
| 20260902121223 | 20 | 291 | 4.8 | 16.1 | 0.00 | 1.24 | 1.22 | 90 | 1010.9 |
| 20260902120724 | 20 | 317 | 8.0 | 16.1 | 0.00 | 1.24 | 1.22 | 90 | 1011.0 |
| 20260902120225 | 20 | 319 | 8.0 | 19.3 | 0.00 | 1.24 | 1.22 | 91 | 1011.0 |
| 20260902115726 | 20 | 282 | 8.0 | 16.1 | 0.00 | 1.24 | 1.22 | 92 | 1011.1 |
| 20260902115224 | 20 | 297 | 8.0 | 12.9 | 0.00 | 1.24 | 1.22 | 92 | 1011.1 |
| 20260902114723 | 19 | 285 | 8.0 | 12.9 | 0.00 | 1.24 | 1.22 | 93 | 1011.1 |
| 20260902114224 | 19 | 295 | 4.8 | 11.3 | 0.00 | 1.24 | 1.22 | 93 | 1011.1 |
| 20260902113724 | 19 | 299 | 3.2 | 9.7 | 0.00 | 1.24 | 1.22 | 93 | 1011.3 |
| 20260902113224 | 19 | 277 | 3.2 | 12.9 | 0.00 | 1.24 | 1.22 | 93 | 1011.3 |
| 20260902112724 | 19 | 303 | 3.2 | 9.7 | 0.00 | 1.24 | 1.22 | 93 | 1011.3 |
| 20260902112225 | 19 | 311 | 3.2 | 9.7 | 0.00 | 1.24 | 1.22 | 94 | 1011.3 |
| 20260902111724 | 19 | 306 | 1.6 | 9.7 | 0.00 | 1.24 | 1.22 | 93 | 1011.3 |
| 20260902111224 | 19 | 285 | 1.6 | 9.7 | 0.00 | 1.24 | 1.22 | 94 | 1011.2 |
| 20260902110224 | 19 | 316 | 3.2 | 9.7 | 0.00 | 1.24 | 1.22 | 94 | 1011.4 |
| 20260902105725 | 19 | 274 | 0.0 | 9.7 | 0.00 | 1.24 | 1.22 | 95 | 1011.3 |
| 20260902105224 | 19 | 281 | 1.6 | 9.7 | 0.00 | 1.24 | 1.22 | 95 | 1011.4 |
| 20260902104225 | 18 | 338 | 0.0 | 3.2 | 0.00 | 1.24 | 1.22 | 96 | 1011.4 |
| 20260902103225 | 18 | 292 | 3.2 | 12.9 | 0.00 | 1.24 | 1.22 | 96 | 1011.4 |
| 20260902102725 | 18 | 296 | 1.6 | 9.7 | 0.00 | 1.24 | 1.22 | 96 | 1011.3 |
| 20260902101724 | 18 | 296 | 1.6 | 9.7 | 0.00 | 1.24 | 1.22 | 97 | 1011.2 |
| 20260902100724 | 18 | 297 | 1.6 | 9.7 | 0.00 | 1.24 | 1.22 | 98 | 1011.2 |
| 20260902095225 | 18 | 292 | 0.0 | 8.0 | 0.00 | 1.24 | 1.22 | 98 | 1011.1 |
| 20260902094724 | 18 | 315 | 0.0 | 3.2 | 0.00 | 1.24 | 1.22 | 98 | 1011.2 |
| 20260902094225 | 18 | 318 | 0.0 | 3.2 | 0.00 | 1.24 | 1.22 | 98 | 1011.2 |
| 20260902093726 | 18 | 281 | 0.0 | 3.2 | 0.00 | 1.24 | 1.22 | 98 | 1011.3 |
| 20260902093224 | 18 | 332 | 0.0 | 3.2 | 0.00 | 1.24 | 1.22 | 98 | 1011.2 |
| 20260902092726 | 18 | 312 | 0.0 | 9.7 | 0.00 | 1.24 | 1.22 | 98 | 1011.3 |
| 20260902092225 | 18 | 305 | 1.6 | 3.2 | 0.00 | 1.24 | 1.22 | 98 | 1011.3 |
| 20260902091725 | 18 | 298 | 1.6 | 9.7 | 0.00 | 1.24 | 1.22 | 98 | 1011.3 |
| 20260902091225 | 18 | 278 | 0.0 | 3.2 | 0.00 | 1.24 | 1.22 | 98 | 1011.1 |
| 20260902090726 | 18 | 305 | 0.0 | 3.2 | 0.00 | 1.24 | 1.22 | 98 | 1011.2 |
| 20260902090225 | 18 | 287 | 1.6 | 8.0 | 0.00 | 1.24 | 1.22 | 98 | 1011.1 |
| 20260902085726 | 18 | 294 | 1.6 | 8.0 | 0.00 | 1.24 | 1.22 | 98 | 1011.1 |
| 20260902085225 | 18 | 353 | 0.0 | 3.2 | 0.00 | 1.24 | 1.22 | 98 | 1011.1 |
| 20260902084725 | 17 | 205 | 0.0 | 4.8 | 0.00 | 1.24 | 1.22 | 98 | 1011.2 |
| 20260902084227 | 17 | 306 | 1.6 | 4.8 | 0.00 | 1.24 | 1.22 | 98 | 1011.2 |
| 20260902083726 | 17 | 296 | 1.6 | 9.7 | 0.00 | 1.24 | 1.22 | 98 | 1011.1 |
| 20260902083226 | 17 | 298 | 0.0 | 4.8 | 0.00 | 1.24 | 1.22 | 98 | 1011.1 |
| 20260902082725 | 17 | 271 | 0.0 | 8.0 | 0.00 | 1.24 | 1.22 | 98 | 1011.1 |
| 20260902082225 | 17 | 276 | 0.0 | 1.6 | 0.00 | 1.24 | 1.22 | 98 | 1011.0 |
| 20260902081725 | 17 | 321 | 1.6 | 8.0 | 0.00 | 1.24 | 1.22 | 98 | 1010.9 |
| 20260902081226 | 17 | 264 | 1.6 | 11.3 | 0.00 | 1.24 | 1.22 | 98 | 1011.0 |
| 20260902080725 | 17 | 193 | 1.6 | 9.7 | 0.00 | 1.24 | 1.22 | 98 | 1011.0 |
| 20260902080226 | 17 | 292 | 1.6 | 4.8 | 0.00 | 1.24 | 1.22 | 98 | 1011.0 |
| 20260902075727 | 17 | 300 | 1.6 | 9.7 | 0.00 | 1.24 | 1.22 | 98 | 1010.9 |
| 20260902075227 | 17 | 195 | 0.0 | 1.6 | 0.00 | 1.24 | 1.22 | 98 | 1010.9 |
| 20260902074726 | 17 | 299 | 1.6 | 4.8 | 0.00 | 1.24 | 1.22 | 98 | 1010.8 |
| 20260902073725 | 17 | 163 | 0.0 | 3.2 | 0.00 | 1.24 | 1.22 | 98 | 1010.8 |
| 20260902073226 | 17 | 287 | 0.0 | 3.2 | 0.00 | 1.24 | 1.22 | 98 | 1010.7 |
| 20260902072726 | 17 | 295 | 1.6 | 9.7 | 0.00 | 1.24 | 1.22 | 98 | 1010.8 |
| 20260902071727 | 17 | 307 | 0.0 | 3.2 | 0.00 | 1.24 | 1.22 | 98 | 1010.8 |
| 20260902071227 | 17 | 212 | 0.0 | 4.8 | 0.00 | 1.24 | 1.22 | 98 | 1010.7 |
| 20260902065726 | 17 | 181 | 0.0 | 1.6 | 0.03 | 1.24 | 1.22 | 98 | 1010.7 |
| 20260902065228 | 17 | 227 | 0.0 | 4.8 | 0.03 | 1.24 | 1.22 | 98 | 1010.6 |
| 20260902064727 | 17 | 0 | 0.0 | 3.2 | 0.03 | 1.24 | 1.22 | 98 | 1010.5 |
| 20260902064227 | 17 | 318 | 3.2 | 9.7 | 0.05 | 1.24 | 1.22 | 98 | 1010.5 |
| 20260902063226 | 17 | 8 | 3.2 | 12.9 | 0.05 | 1.24 | 1.22 | 98 | 1010.5 |
| 20260902062727 | 17 | 193 | 3.2 | 9.7 | 0.05 | 1.24 | 1.22 | 99 | 1010.5 |
| 20260902062226 | 17 | 191 | 3.2 | 14.5 | 0.08 | 1.24 | 1.22 | 98 | 1010.5 |
| 20260902060727 | 17 | 158 | 1.6 | 14.5 | 0.15 | 1.24 | 1.22 | 98 | 1010.7 |
| 20260902060227 | 16 | 175 | 8.0 | 16.1 | 0.18 | 1.24 | 1.22 | 98 | 1010.6 |
| 20260902055727 | 16 | 222 | 4.8 | 12.9 | 0.18 | 1.22 | 1.19 | 98 | 1010.8 |
| 20260902055227 | 16 | 189 | 4.8 | 12.9 | 0.20 | 1.22 | 1.19 | 98 | 1010.8 |
| 20260902054727 | 16 | 178 | 6.4 | 20.9 | 0.23 | 1.22 | 1.19 | 98 | 1010.7 |
| 20260902054227 | 16 | 180 | 3.2 | 12.9 | 0.28 | 1.19 | 1.17 | 98 | 1010.8 |
| 20260902053727 | 16 | 170 | 8.0 | 14.5 | 0.30 | 1.19 | 1.17 | 98 | 1011.0 |
| 20260902053227 | 16 | 163 | 9.7 | 16.1 | 0.30 | 1.17 | 1.17 | 98 | 1011.0 |
| 20260902052727 | 16 | 151 | 9.7 | 19.3 | 0.33 | 1.17 | 1.17 | 98 | 1011.1 |
| 20260902052228 | 16 | 159 | 9.7 | 14.5 | 0.33 | 1.17 | 1.14 | 98 | 1011.3 |
| 20260902051727 | 16 | 173 | 11.3 | 19.3 | 0.30 | 1.12 | 1.09 | 98 | 1011.3 |
| 20260902051226 | 16 | 171 | 9.7 | 19.3 | 0.28 | 1.09 | 1.09 | 98 | 1011.5 |
| 20260902050728 | 16 | 143 | 9.7 | 16.1 | 0.30 | 1.09 | 1.09 | 98 | 1011.5 |
| 20260902050229 | 16 | 150 | 8.0 | 19.3 | 0.28 | 1.07 | 1.04 | 98 | 1011.7 |
| 20260902045727 | 16 | 152 | 9.7 | 19.3 | 0.25 | 1.04 | 1.02 | 98 | 1011.7 |
| 20260902045228 | 16 | 148 | 11.3 | 20.9 | 0.28 | 1.02 | 0.99 | 98 | 1011.9 |
| 20260902044727 | 16 | 169 | 11.3 | 20.9 | 0.25 | 0.99 | 0.97 | 98 | 1012.0 |
| 20260902044228 | 16 | 152 | 11.3 | 20.9 | 0.23 | 0.91 | 0.89 | 98 | 1012.0 |
| 20260902043728 | 16 | 151 | 8.0 | 19.3 | 0.23 | 0.89 | 0.89 | 98 | 1012.2 |
| 20260902043228 | 16 | 150 | 9.7 | 20.9 | 0.20 | 0.89 | 0.86 | 97 | 1012.1 |
| 20260902042729 | 16 | 163 | 9.7 | 16.1 | 0.20 | 0.86 | 0.84 | 98 | 1012.0 |
| 20260902042228 | 16 | 149 | 11.3 | 20.9 | 0.20 | 0.84 | 0.81 | 98 | 1012.1 |
| 20260902041728 | 16 | 161 | 9.7 | 20.9 | 0.18 | 0.81 | 0.79 | 97 | 1012.2 |
| 20260902041227 | 16 | 164 | 11.3 | 22.5 | 0.20 | 0.81 | 0.79 | 97 | 1012.4 |
| 20260902040728 | 16 | 166 | 11.3 | 20.9 | 0.20 | 0.79 | 0.79 | 97 | 1012.6 |
| 20260902040228 | 16 | 147 | 9.7 | 19.3 | 0.20 | 0.79 | 0.76 | 97 | 1012.7 |
| 20260902035728 | 16 | 163 | 9.7 | 19.3 | 0.23 | 0.79 | 0.76 | 97 | 1012.7 |
| 20260902035229 | 16 | 153 | 9.7 | 20.9 | 0.20 | 0.74 | 0.71 | 97 | 1012.8 |
| 20260902034727 | 16 | 178 | 9.7 | 24.1 | 0.20 | 0.71 | 0.71 | 97 | 1012.9 |
| 20260902034228 | 16 | 151 | 8.0 | 16.1 | 0.20 | 0.71 | 0.69 | 97 | 1012.8 |
| 20260902033228 | 15 | 177 | 4.8 | 12.9 | 0.23 | 0.69 | 0.66 | 97 | 1013.2 |
| 20260902032728 | 15 | 165 | 8.0 | 14.5 | 0.23 | 0.66 | 0.64 | 97 | 1013.2 |
| 20260902032228 | 15 | 178 | 6.4 | 22.5 | 0.20 | 0.64 | 0.61 | 97 | 1013.4 |
| 20260902031730 | 15 | 159 | 9.7 | 19.3 | 0.23 | 0.64 | 0.61 | 97 | 1013.6 |
| 20260902031228 | 15 | 165 | 4.8 | 12.9 | 0.20 | 0.61 | 0.61 | 97 | 1013.6 |
| 20260902030728 | 15 | 185 | 3.2 | 9.7 | 0.20 | 0.61 | 0.58 | 96 | 1013.7 |
| 20260902030228 | 15 | 177 | 4.8 | 12.9 | 0.20 | 0.58 | 0.56 | 96 | 1013.8 |
| 20260902025729 | 15 | 179 | 3.2 | 9.7 | 0.20 | 0.56 | 0.53 | 96 | 1013.8 |
| 20260902025229 | 15 | 177 | 9.7 | 19.3 | 0.20 | 0.53 | 0.51 | 96 | 1013.9 |
| 20260902024728 | 15 | 177 | 4.8 | 16.1 | 0.20 | 0.51 | 0.51 | 97 | 1014.1 |
| 20260902023728 | 15 | 147 | 4.8 | 9.7 | 0.15 | 0.46 | 0.43 | 96 | 1014.1 |
| 20260902022728 | 15 | 136 | 1.6 | 4.8 | 0.15 | 0.43 | 0.43 | 96 | 1014.3 |
| 20260902022229 | 15 | 147 | 3.2 | 9.7 | 0.15 | 0.43 | 0.43 | 95 | 1014.3 |
| 20260902021729 | 15 | 169 | 4.8 | 9.7 | 0.13 | 0.43 | 0.41 | 95 | 1014.4 |
| 20260902021228 | 15 | 149 | 3.2 | 9.7 | 0.15 | 0.43 | 0.41 | 95 | 1014.5 |
| 20260902020728 | 15 | 159 | 4.8 | 9.7 | 0.13 | 0.41 | 0.38 | 95 | 1014.5 |
| 20260902020229 | 15 | 156 | 3.2 | 9.7 | 0.13 | 0.38 | 0.36 | 95 | 1014.6 |
| 20260902015729 | 16 | 166 | 4.8 | 9.7 | 0.10 | 0.36 | 0.33 | 95 | 1014.8 |
| 20260902015229 | 16 | 154 | 8.0 | 14.5 | 0.10 | 0.33 | 0.33 | 95 | 1014.9 |
| 20260902014730 | 16 | 165 | 3.2 | 8.0 | 0.08 | 0.33 | 0.30 | 96 | 1014.9 |
| 20260902013729 | 16 | 178 | 1.6 | 4.8 | 0.10 | 0.33 | 0.30 | 95 | 1015.1 |
| 20260902013228 | 16 | 134 | 1.6 | 12.9 | 0.13 | 0.33 | 0.30 | 96 | 1014.9 |
| 20260902012729 | 16 | 167 | 3.2 | 11.3 | 0.13 | 0.30 | 0.28 | 96 | 1015.0 |
| 20260902012228 | 16 | 171 | 3.2 | 9.7 | 0.13 | 0.30 | 0.28 | 95 | 1015.1 |
| 20260902011229 | 16 | 181 | 3.2 | 11.3 | 0.15 | 0.28 | 0.25 | 95 | 1015.3 |
| 20260902010229 | 16 | 200 | 4.8 | 9.7 | 0.15 | 0.25 | 0.23 | 95 | 1015.4 |
| 20260902005729 | 16 | 187 | 3.2 | 9.7 | 0.15 | 0.25 | 0.23 | 95 | 1015.4 |
| 20260902004731 | 16 | 178 | 8.0 | 16.1 | 0.18 | 0.23 | 0.23 | 95 | 1015.5 |
| 20260902004229 | 16 | 180 | 6.4 | 12.9 | 0.18 | 0.23 | 0.20 | 95 | 1015.6 |
| 20260902003729 | 16 | 168 | 4.8 | 14.5 | 0.20 | 0.23 | 0.20 | 95 | 1015.6 |
| 20260902003231 | 16 | 171 | 4.8 | 9.7 | 0.18 | 0.20 | 0.18 | 95 | 1015.6 |
| 20260902002730 | 16 | 141 | 1.6 | 8.0 | 0.15 | 0.18 | 0.15 | 95 | 1015.7 |
| 20260902002229 | 16 | 152 | 1.6 | 4.8 | 0.15 | 0.18 | 0.15 | 95 | 1015.8 |
| 20260902001729 | 16 | 152 | 1.6 | 4.8 | 0.15 | 0.15 | 0.15 | 95 | 1015.8 |
| 20260902001230 | 16 | 185 | 3.2 | 8.0 | 0.13 | 0.15 | 0.13 | 94 | 1015.9 |
| 20260902000745 | 16 | 168 | 3.2 | 11.3 | 0.13 | 0.15 | 0.13 | 94 | 1015.9 |
| 20260901235731 | 16 | 171 | 4.8 | 11.3 | 0.08 | 0.13 | 0.10 | 94 | 1015.9 |
| 20260901234731 | 16 | 177 | 1.6 | 9.7 | 0.05 | 0.08 | 0.05 | 93 | 1016.2 |
| 20260901234231 | 16 | 173 | 4.8 | 9.7 | 0.03 | 0.05 | 0.05 | 93 | 1016.3 |
| 20260901233729 | 16 | 169 | 4.8 | 9.7 | 0.00 | 0.05 | 0.03 | 93 | 1016.2 |
| 20260901232731 | 16 | 161 | 4.8 | 9.7 | 0.00 | 0.03 | 0.00 | 92 | 1016.3 |
| 20260901231730 | 16 | 151 | 1.6 | 4.8 | 0.00 | 0.03 | 0.00 | 91 | 1016.7 |
| 20260901230230 | 16 | 164 | 0.0 | 4.8 | 0.00 | 0.03 | 0.00 | 90 | 1016.8 |
| 20260901225731 | 16 | 153 | 0.0 | 1.6 | 0.00 | 0.03 | 0.03 | 90 | 1016.9 |
| 20260901225232 | 16 | 131 | 0.0 | 4.8 | 0.00 | 0.03 | 0.03 | 91 | 1016.8 |
| 20260901224230 | 16 | 137 | 1.6 | 3.2 | 0.00 | 0.03 | 0.03 | 90 | 1016.8 |
| 20260901223730 | 16 | 139 | 0.0 | 1.6 | 0.00 | 0.03 | 0.03 | 90 | 1016.9 |
| 20260901223231 | 16 | 137 | 0.0 | 1.6 | 0.00 | 0.03 | 0.03 | 90 | 1016.9 |
| 20260901222730 | 16 | 140 | 0.0 | 1.6 | 0.00 | 0.03 | 0.03 | 89 | 1017.0 |
| 20260901222230 | 16 | 136 | 0.0 | 0.0 | 0.00 | 0.03 | 0.03 | 89 | 1017.0 |
| 20260901221730 | 16 | 145 | 0.0 | 1.6 | 0.00 | 0.03 | 0.03 | 89 | 1017.0 |
| 20260901221232 | 16 | 266 | 0.0 | 0.0 | 0.00 | 0.03 | 0.03 | 89 | 1017.1 |
| 20260901220730 | 16 | 266 | 0.0 | 0.0 | 0.00 | 0.03 | 0.03 | 89 | 1017.0 |
| 20260901215731 | 16 | 266 | 0.0 | 0.0 | 0.00 | 0.03 | 0.03 | 88 | 1017.0 |
| 20260901215231 | 16 | 266 | 0.0 | 0.0 | 0.00 | 0.03 | 0.03 | 88 | 1017.1 |
| 20260901214732 | 16 | 266 | 0.0 | 0.0 | 0.00 | 0.03 | 0.03 | 88 | 1017.1 |
| 20260901214230 | 16 | 266 | 0.0 | 1.6 | 0.00 | 0.03 | 0.03 | 87 | 1017.1 |
| 20260901213731 | 16 | 317 | 0.0 | 3.2 | 0.00 | 0.03 | 0.03 | 87 | 1017.2 |
| 20260901213230 | 16 | 330 | 0.0 | 4.8 | 0.00 | 0.03 | 0.03 | 86 | 1017.3 |
| 20260901212731 | 16 | 309 | 1.6 | 4.8 | 0.00 | 0.03 | 0.03 | 86 | 1017.3 |
| 20260901211733 | 16 | 309 | 1.6 | 3.2 | 0.00 | 0.03 | 0.03 | 85 | 1017.2 |
| 20260901211231 | 16 | 300 | 1.6 | 3.2 | 0.00 | 0.03 | 0.03 | 86 | 1017.1 |
| 20260901210731 | 16 | 300 | 1.6 | 4.8 | 0.00 | 0.03 | 0.03 | 86 | 1017.1 |
| 20260901210232 | 16 | 295 | 3.2 | 9.7 | 0.00 | 0.03 | 0.03 | 86 | 1017.1 |
| 20260901205733 | 16 | 313 | 1.6 | 4.8 | 0.00 | 0.03 | 0.03 | 87 | 1017.1 |
| 20260901205232 | 16 | 315 | 0.0 | 4.8 | 0.00 | 0.03 | 0.03 | 87 | 1017.1 |
| 20260901204731 | 16 | 301 | 3.2 | 9.7 | 0.00 | 0.03 | 0.03 | 86 | 1017.2 |
| 20260901203730 | 16 | 320 | 1.6 | 8.0 | 0.00 | 0.03 | 0.03 | 87 | 1017.0 |
| 20260901203231 | 16 | 305 | 1.6 | 9.7 | 0.00 | 0.03 | 0.03 | 88 | 1016.9 |
| 20260901202732 | 16 | 325 | 0.0 | 4.8 | 0.00 | 0.03 | 0.03 | 90 | 1016.9 |
| 20260901202231 | 16 | 305 | 0.0 | 3.2 | 0.00 | 0.03 | 0.03 | 90 | 1016.9 |
| 20260901201732 | 16 | 313 | 1.6 | 4.8 | 0.00 | 0.03 | 0.03 | 91 | 1016.9 |
| 20260901201231 | 16 | 314 | 1.6 | 4.8 | 0.00 | 0.03 | 0.03 | 91 | 1017.0 |
| 20260901200731 | 16 | 290 | 3.2 | 11.3 | 0.00 | 0.03 | 0.03 | 91 | 1017.1 |
| 20260901200231 | 16 | 313 | 1.6 | 9.7 | 0.00 | 0.03 | 0.03 | 91 | 1016.9 |
| 20260901195732 | 16 | 291 | 1.6 | 8.0 | 0.00 | 0.03 | 0.03 | 91 | 1017.0 |
| 20260901195232 | 17 | 356 | 1.6 | 4.8 | 0.00 | 0.03 | 0.03 | 91 | 1017.0 |
| 20260901194231 | 17 | 231 | 1.6 | 4.8 | 0.00 | 0.03 | 0.03 | 91 | 1017.0 |
| 20260901193732 | 17 | 127 | 0.0 | 3.2 | 0.00 | 0.03 | 0.03 | 91 | 1016.9 |
| 20260901193231 | 17 | 175 | 1.6 | 3.2 | 0.00 | 0.03 | 0.03 | 91 | 1017.0 |
| 20260901192732 | 17 | 328 | 1.6 | 8.0 | 0.00 | 0.03 | 0.03 | 91 | 1017.0 |
| 20260901192232 | 17 | 291 | 1.6 | 4.8 | 0.00 | 0.03 | 0.03 | 91 | 1016.9 |
| 20260901191732 | 17 | 302 | 0.0 | 4.8 | 0.00 | 0.03 | 0.03 | 91 | 1016.8 |
| 20260901191231 | 17 | 313 | 1.6 | 3.2 | 0.00 | 0.03 | 0.03 | 91 | 1016.8 |
| 20260901190732 | 17 | 303 | 1.6 | 9.7 | 0.00 | 0.03 | 0.03 | 91 | 1016.9 |
| 20260901190233 | 17 | 299 | 1.6 | 11.3 | 0.00 | 0.03 | 0.03 | 91 | 1016.9 |
| 20260901185732 | 17 | 305 | 1.6 | 3.2 | 0.00 | 0.03 | 0.03 | 90 | 1016.8 |
| 20260901185232 | 17 | 334 | 0.0 | 3.2 | 0.00 | 0.03 | 0.03 | 90 | 1016.8 |
| 20260901184733 | 17 | 241 | 1.6 | 3.2 | 0.00 | 0.03 | 0.03 | 90 | 1016.8 |
| 20260901184232 | 17 | 300 | 1.6 | 4.8 | 0.00 | 0.03 | 0.03 | 89 | 1016.9 |
| 20260901183733 | 17 | 295 | 1.6 | 4.8 | 0.00 | 0.03 | 0.03 | 89 | 1016.9 |
| 20260901183232 | 17 | 296 | 0.0 | 8.0 | 0.00 | 0.03 | 0.03 | 89 | 1016.9 |
| 20260901182732 | 17 | 313 | 0.0 | 3.2 | 0.00 | 0.03 | 0.03 | 89 | 1017.0 |